STARLINK-11450, 62518

Orbit data source: Space-Track

STARLINK-11450, 62518 is a payload satellite owned by SpaceX/Seattle (US) in LEO that was launched on Wed, 08 Jan 2025 UTC via an FALCON 9 launch vehicle from the Air Force Eastern Test Range (AFETR). Payloads include a variety of satellites, spacecraft, and rockets equipped with specific instruments for various scientific and technological missions. These include communications satellites like Starlink; space stations such as the ISS; scientific satellites like the Hubble; Earth observation satellites from companies like Planet Labs, Umbra, and HawkEye 360; GPS; miniature CubeSats for education and research; and military/defense satellites.

Loading next visibility...
STARLINK-11450 details
Identifier
62518, 2025-004H
Orbit
LEO
Last TLE update1 day ago
Origin
Flag of USSpaceX/Seattle (US)
ManufacturerSpaceX/Seattle
MissionOperational spacecraft
Bus & MotorSTARLINK V2M, Unknown motor
Mass730 kg wet, ~700 kg dry
Launch date (UTC)
2025-01-08 (1 month ago)
Launch vehicle
FALCON 9
Launch site
Air Force Eastern Test Range (AFETR)
Object type
Payload
Rocket body
Debris
Shape & HBRUnknown
Radar Cross SectionLarge (>1 m²)

Expand to show TLE details & history

TLE from 1 day ago
0 STARLINK-11450
1 62518U 25004H   25035.17817195  .00002176  00000-0  15367-4 0  9999
2 62518  42.9979 313.6802 0001976 262.7772  97.2874 15.77858212  4527
Epoch: 2025-02-04T04:16Z
Definitive object data (Epoch: 2025-02-04T04:16:34.056Z)
Latitude0.00001°
Longitude114.95112°
Altitude336.449 km
Speed7.709 km/s
True Right ascension20h 54m 43s
True Declination0° 00' 00"
Sunlit
Object was in daylight at TLE epoch
Visualization TLE readout
Latitude18.50463°
Longitude-92.68039°
Altitude336.341 km
Speed7.71 km/s
Apparent Right ascension03h 54m 44s
Apparent Declination-34° 05' 06"
Sunlit
Object is in full shadow
Visualization observer readout
Local Sidereal Time08:46:55
Azimuth233.566° WSW
Elevation-10.042°
Doppler factor1
Orbital elements
Apogee altitude339.825 km
Perigee altitude337.171 km
Semi-major axis6,716.635 km
Eccentricity0.0001976
Inclination42.9979°
RAAN313.6802°
Arg. of periapsis262.7772°
True anomaly97.30986°
Mean anomaly97.2874°
Eccentric anomaly97.29863°
Mean motion3.9429 °/min
BSTAR0.000015367
Orbital period91.3 mins
Loading maneuver chart data...
Loading historical data...
Loading historical data...
Loading historical data...
Loading historical data...
Loading historical data...
Loading historical data...
Loading historical data...

STARLINK-11450 Visibility forecast

Observer location: undefined°, undefined

Span
Click to sort rows by Start time (UTC) header in descending order
Start Az.
Max El. time (UTC)
Max El. Az.
Max El.
End time (UTC)
End Az.
5 mins2025-02-05 21:30:41.838Z222.77° SW2025-02-05 21:32:41.838Z179.671° S30.073°2025-02-05 21:35:41.838Z83.395° E
4 mins2025-02-06 02:18:41.838Z275.155° WNW2025-02-06 02:20:41.838Z173.986° S37.057°2025-02-06 02:22:41.838Z127.7° SE
|